[[{"header":{"parameterUnit":"m.s-1","parameterCategory":1,"la1":30.2991,"la2":30.254,"lo1":-89.0895,"lo2":-89.0444,"dy":0.0017,"dx":0.0017,"nx":28,"ny":28,"refTime":"2024-10-15T09:00:00:Z","depth":0,"parameterNumber":2,"parameterNumberName":"U-component_of_WINDS"},"data":[0,0,0,0,0,0,0,0,0,0,0,0,0,0,0,0,0,0,0,0,0,0,0,0,0,0,0,0,0,0,0,0,0,0,0,0,0,0,0,0,0,0,0,0,0,0,0,0,0,0,0,0,0,0,0,0,0,0,-1.3442,-1.3441,0,-1.3346,-1.3345,-1.3344,-1.3276,-1.3275,-1.3274,-1.3274,-1.3171,-1.3169,-1.3167,0,0,0,0,0,0,0,0,0,0,0,0,0,-1.3561,-1.3559,-1.3442,-1.3441,-1.3439,-1.3346,-1.3345,-1.3343,-1.3276,-1.3275,-1.3274,-1.3274,-1.3172,-1.317,-1.3167,0,0,0,0,0,0,0,0,0,0,0,0,0,-1.3492,-1.3559,-1.3442,-1.3395,-1.3389,-1.3346,-1.3345,-1.3343,-1.3276,-1.3275,-1.3274,-1.3273,-1.3173,-1.317,-1.3166,-1.3162,0,0,-1.3156,-1.3155,0,0,0,0,0,0,0,0,-1.3496,-1.3487,-1.3403,-1.3398,-1.3392,-1.3322,-1.3349,-1.3282,-1.3276,-1.3319,-1.3274,-1.3273,-1.3222,-1.3214,-1.3198,-1.3157,-1.3153,-1.3156,-1.3154,-1.3152,-1.3152,0,0,0,0,0,0,0,-1.3501,-1.3491,-1.3404,-1.3402,-1.3395,-1.3376,-1.3365,-1.3336,-1.3276,-1.3315,-1.331,-1.33,-1.3219,-1.3201,-1.3195,-1.3151,-1.3156,-1.3153,-1.3151,-1.315,-1.3098,-1.3099,0,0,0,0,0,0,-1.3514,-1.3496,-1.3407,-1.3401,-1.3443,-1.3375,-1.3363,-1.3345,-1.3276,-1.3265,-1.33,-1.3297,-1.3208,-1.3199,-1.3191,-1.318,-1.3152,-1.3149,-1.3147,-1.3098,-1.3098,-1.3099,0,0,0,0,0,0,-1.3516,-1.3506,-1.3411,-1.3447,-1.3433,-1.3374,-1.3354,-1.3344,-1.3326,-1.3265,-1.3253,-1.3294,-1.3207,-1.3196,-1.3169,-1.3175,-1.3148,-1.3145,-1.3097,-1.3098,-1.3099,-1.3158,0,0,0,0,0,0,-1.352,-1.3508,-1.3507,-1.3447,-1.3432,-1.3392,-1.3355,-1.3342,-1.3321,-1.3316,-1.3256,-1.3245,-1.3205,-1.3175,-1.3166,-1.317,-1.3142,-1.3096,-1.3097,-1.3098,-1.3155,-1.3161,-1.3165,0,0,0,0,0,-1.3525,-1.3527,-1.3507,-1.3497,-1.3429,-1.3393,-1.3384,-1.3338,-1.3322,-1.332,-1.328,-1.3247,-1.3176,-1.3173,-1.3162,-1.3165,-1.3095,-1.3097,-1.3098,-1.3153,-1.3159,-1.3165,0,0,0,0,0,0,-1.3588,-1.3518,-1.3496,-1.3479,-1.3442,-1.3381,-1.3377,-1.3347,-1.3314,-1.331,-1.3253,-1.3241,-1.3219,-1.3189,-1.3187,-1.3156,-1.3132,-1.3131,-1.3176,-1.3182,-1.3187,-1.3195,-1.3139,0,0,0,0,0,-1.36,-1.3578,-1.3517,-1.3508,-1.3491,-1.3438,-1.342,-1.3388,-1.3347,-1.3331,-1.3289,-1.325,-1.3218,-1.3198,-1.3166,-1.315,-1.3135,-1.3147,-1.3152,-1.3157,-1.3157,-1.3144,-1.3148,-1.3104,-1.3104,-1.3104,0,0,-1.3625,-1.3584,-1.3573,-1.352,-1.3488,-1.3464,-1.3425,-1.3402,-1.3383,-1.3327,-1.33,-1.3267,-1.3219,-1.3197,-1.3186,-1.3172,-1.3165,-1.3159,-1.3163,-1.316,-1.3146,-1.315,-1.3154,-1.3105,-1.3105,-1.3105,0,0,-1.3657,-1.3625,-1.3613,-1.3582,-1.3534,-1.3498,-1.3495,-1.3438,-1.3415,-1.3386,-1.3343,-1.3319,-1.3266,-1.3233,-1.3209,-1.3227,-1.3195,-1.3218,-1.3245,-1.3233,-1.3237,-1.324,-1.3245,-1.3247,-1.3218,-1.3218,-1.3219,0,-1.3694,-1.3658,-1.3611,-1.359,-1.3567,-1.3516,-1.3502,-1.3473,-1.3417,-1.3401,-1.3387,-1.3318,-1.3282,-1.3251,-1.3255,-1.3238,-1.3232,-1.3225,-1.324,-1.3243,-1.3245,-1.3249,-1.3251,-1.3221,-1.3221,-1.3221,-1.3221,0,-1.3704,-1.368,-1.3676,-1.3623,-1.36,-1.3583,-1.3531,-1.3512,-1.3482,-1.3447,-1.3417,-1.3372,-1.3328,-1.3318,-1.3289,-1.3282,-1.3275,-1.3251,-1.3226,-1.3253,-1.3255,-1.3257,-1.3226,-1.3225,-1.3224,-1.3223,0,0,-1.3775,-1.3696,-1.3695,-1.367,-1.3612,-1.3592,-1.3571,-1.353,-1.3514,-1.3476,-1.3456,-1.3412,-1.3389,-1.3362,-1.3327,-1.3317,-1.3332,-1.3294,-1.3292,-1.3302,-1.332,-1.3338,-1.3341,-1.3311,-1.3311,-1.3311,-1.3324,0,-1.3799,-1.3761,-1.3717,-1.3693,-1.3669,-1.3619,-1.36,-1.3562,-1.3528,-1.35,-1.3462,-1.3431,-1.3404,-1.3387,-1.3375,-1.3333,-1.3335,-1.3331,-1.329,-1.3289,-1.3303,-1.3343,-1.3362,-1.3377,-1.3325,-1.3325,-1.3325,0,-1.3821,-1.3787,-1.3761,-1.3704,-1.3692,-1.3677,-1.3634,-1.3609,-1.3563,-1.3539,-1.3508,-1.3471,-1.3445,-1.3422,-1.3383,-1.3382,-1.3362,-1.3339,-1.3338,-1.3332,-1.3309,-1.3337,-1.3381,-1.3383,-1.3327,-1.3327,-1.3326,0,-1.3875,-1.3821,-1.3799,-1.3779,-1.3712,-1.3702,-1.3673,-1.3627,-1.3604,-1.3566,-1.355,-1.3509,-1.3487,-1.3455,-1.3407,-1.3395,-1.3372,-1.3346,-1.335,-1.3351,-1.3347,-1.3348,-1.3388,-1.3335,-1.3335,-1.3335,-1.3335,0,-1.3905,-1.3892,-1.3822,-1.3808,-1.379,-1.3738,-1.3721,-1.3687,-1.3646,-1.3623,-1.3576,-1.3555,-1.3493,-1.3464,-1.3426,-1.3399,-1.3389,-1.3367,-1.3357,-1.3371,-1.3374,-1.3357,-1.3355,-1.3336,-1.3336,-1.3336,-1.3336,0,-1.3963,-1.3915,-1.3887,-1.3826,-1.381,-1.3799,-1.3745,-1.3729,-1.3691,-1.3663,-1.3653,-1.3594,-1.3557,-1.3506,-1.3453,-1.3427,-1.3404,-1.3389,-1.3421,-1.3415,-1.3421,-1.342,-1.345,-1.3451,-1.3399,-1.34,-1.3401,0,-1.3985,-1.3973,-1.391,-1.3892,-1.3865,-1.3837,-1.3813,-1.376,-1.3737,-1.3683,-1.3673,-1.3632,-1.3598,-1.354,-1.3492,-1.345,-1.3433,-1.3446,-1.3426,-1.344,-1.3432,-1.3433,-1.3431,-1.3451,-1.3452,-1.3452,-1.3453,0,-1.403,-1.4007,-1.3976,-1.3936,-1.3909,-1.3875,-1.3838,-1.3826,-1.3764,-1.374,-1.3703,-1.3676,-1.3622,-1.3581,-1.3533,-1.3501,-1.3466,-1.3459,-1.3458,-1.3472,-1.3491,-1.348,-1.3433,-1.3459,-1.3458,-1.3458,-1.3458,-1.3457,-1.407,-1.4057,-1.401,-1.3976,-1.3943,-1.3909,-1.389,-1.385,-1.3818,-1.3771,-1.3741,-1.3704,-1.3655,-1.3587,-1.3557,-1.3526,-1.3512,-1.351,-1.3509,-1.3509,-1.3514,-1.3496,-1.3517,-1.3516,-1.3516,-1.3516,-1.3516,0,-1.4112,-1.4079,-1.4048,-1.3999,-1.3971,-1.3942,-1.3899,-1.3877,-1.3846,-1.3805,-1.3771,-1.3726,-1.3687,-1.3634,-1.359,-1.3575,-1.3558,-1.3565,-1.3566,-1.3558,-1.3529,-1.3535,-1.358,-1.358,-1.358,-1.358,-1.358,-1.358,-1.4131,-1.4106,-1.4077,-1.4034,-1.4,-1.3965,-1.3943,-1.391,-1.3877,-1.3829,-1.3797,-1.3763,-1.3716,-1.3668,-1.3629,-1.3614,-1.36,-1.3612,-1.3592,-1.3566,-1.3561,-1.3555,-1.356,-1.361,-1.361,-1.3624,-1.3624,-1.3624]},{"header":{"parameterUnit":"m.s-1","parameterCategory":1,"la1":30.2991,"la2":30.254,"lo1":-89.0895,"lo2":-89.0444,"dy":0.0017,"dx":0.0017,"nx":28,"ny":28,"refTime":"2024-10-15T09:00:00:Z","depth":0,"parameterNumber":3,"parameterNumberName":"V-component_of_WINDS"},"data":[0,0,0,0,0,0,0,0,0,0,0,0,0,0,0,0,0,0,0,0,0,0,0,0,0,0,0,0,0,0,0,0,0,0,0,0,0,0,0,0,0,0,0,0,0,0,0,0,0,0,0,0,0,0,0,0,0,0,-3.5109,-3.5111,0,-3.5239,-3.5241,-3.5242,-3.5243,-3.5241,-3.524,-3.5238,-3.5369,-3.5374,-3.5379,0,0,0,0,0,0,0,0,0,0,0,0,0,-3.486,-3.4865,-3.5109,-3.5111,-3.5112,-3.5239,-3.5241,-3.5242,-3.5243,-3.5241,-3.5239,-3.5237,-3.5367,-3.5373,-3.5379,0,0,0,0,0,0,0,0,0,0,0,0,0,-3.4977,-3.4866,-3.5109,-3.5128,-3.5131,-3.5238,-3.5241,-3.5243,-3.5244,-3.5241,-3.5239,-3.5236,-3.5365,-3.5372,-3.538,-3.5476,0,0,-3.5403,-3.5406,0,0,0,0,0,0,0,0,-3.497,-3.4986,-3.5124,-3.5127,-3.5131,-3.5222,-3.5201,-3.5321,-3.5244,-3.5201,-3.5238,-3.5235,-3.5322,-3.5333,-3.5362,-3.5482,-3.5487,-3.5403,-3.5408,-3.5411,-3.5413,0,0,0,0,0,0,0,-3.4962,-3.498,-3.516,-3.5126,-3.513,-3.513,-3.5144,-3.5223,-3.5274,-3.5205,-3.5205,-3.522,-3.5323,-3.5355,-3.5366,-3.5489,-3.5403,-3.541,-3.5415,-3.5417,-3.5694,-3.5696,0,0,0,0,0,0,-3.495,-3.4974,-3.5156,-3.5164,-3.5043,-3.5136,-3.5152,-3.5195,-3.5273,-3.5282,-3.5222,-3.522,-3.5344,-3.5357,-3.537,-3.5487,-3.5411,-3.5418,-3.5423,-3.5691,-3.5694,-3.5697,0,0,0,0,0,0,-3.4945,-3.4967,-3.5151,-3.5069,-3.5093,-3.5143,-3.5192,-3.5199,-3.5231,-3.5286,-3.5295,-3.5246,-3.5342,-3.536,-3.545,-3.5492,-3.5422,-3.5428,-3.5687,-3.5692,-3.5696,-3.5722,0,0,0,0,0,0,-3.4938,-3.4965,-3.5002,-3.507,-3.5097,-3.5229,-3.5195,-3.5204,-3.5244,-3.5243,-3.5311,-3.532,-3.5342,-3.5438,-3.5457,-3.5501,-3.5434,-3.5684,-3.5689,-3.5694,-3.5718,-3.5727,-3.5734,0,0,0,0,0,-3.4929,-3.5004,-3.5004,-3.5026,-3.5145,-3.5232,-3.5247,-3.5271,-3.5248,-3.5286,-3.5321,-3.5317,-3.5484,-3.5448,-3.5469,-3.5515,-3.5681,-3.5688,-3.5694,-3.5714,-3.5725,-3.5734,0,0,0,0,0,0,-3.4939,-3.5013,-3.5014,-3.5114,-3.5166,-3.5232,-3.528,-3.5282,-3.5342,-3.5338,-3.5365,-3.538,-3.547,-3.5502,-3.5459,-3.5612,-3.558,-3.5591,-3.5588,-3.5599,-3.5607,-3.5597,-3.5441,0,0,0,0,0,-3.4953,-3.5018,-3.5079,-3.516,-3.5187,-3.5229,-3.5268,-3.5282,-3.5337,-3.5359,-3.5401,-3.5455,-3.5519,-3.5561,-3.5623,-3.5723,-3.5737,-3.5765,-3.5773,-3.578,-3.5789,-3.5843,-3.5856,-3.5718,-3.5718,-3.5718,0,0,-3.4982,-3.503,-3.5069,-3.5164,-3.5206,-3.5272,-3.5248,-3.5318,-3.5367,-3.537,-3.5457,-3.549,-3.5551,-3.5646,-3.569,-3.5676,-3.583,-3.5788,-3.5793,-3.5798,-3.5851,-3.5864,-3.5876,-3.5722,-3.5722,-3.5721,0,0,-3.5068,-3.5112,-3.5184,-3.5228,-3.5293,-3.5321,-3.5338,-3.5403,-3.5425,-3.5514,-3.5517,-3.5576,-3.5686,-3.573,-3.5766,-3.5869,-3.5868,-3.5889,-3.5932,-3.5985,-3.5996,-3.6006,-3.6042,-3.6055,-3.5898,-3.5898,-3.5898,0,-3.5095,-3.5195,-3.5221,-3.5292,-3.5333,-3.534,-3.5413,-3.5454,-3.5536,-3.5564,-3.5546,-3.5685,-3.5727,-3.5832,-3.5858,-3.5887,-3.5907,-3.5881,-3.5993,-3.6003,-3.6012,-3.6047,-3.606,-3.59,-3.59,-3.5899,-3.5899,0,-3.5226,-3.5295,-3.5346,-3.5425,-3.5472,-3.5544,-3.558,-3.5625,-3.5635,-3.5664,-3.5754,-3.5804,-3.5877,-3.5903,-3.5914,-3.601,-3.5999,-3.5987,-3.5955,-3.6027,-3.606,-3.6074,-3.5903,-3.5902,-3.5901,-3.5901,0,0,-3.5321,-3.5415,-3.5433,-3.5469,-3.5541,-3.5595,-3.5667,-3.5739,-3.5776,-3.5832,-3.5893,-3.5987,-3.5976,-3.6018,-3.6033,-3.608,-3.6158,-3.6062,-3.6064,-3.6077,-3.6266,-3.6274,-3.6289,-3.6158,-3.616,-3.6163,-3.6261,0,-3.5414,-3.5543,-3.5568,-3.568,-3.5744,-3.5751,-3.5814,-3.5865,-3.5894,-3.5952,-3.5984,-3.605,-3.6031,-3.6056,-3.6103,-3.6138,-3.6196,-3.6132,-3.6213,-3.6216,-3.6197,-3.6306,-3.6315,-3.6405,-3.6274,-3.6276,-3.6278,0,-3.554,-3.56,-3.5718,-3.5782,-3.581,-3.5866,-3.5934,-3.599,-3.6047,-3.6065,-3.6112,-3.6123,-3.6197,-3.6163,-3.6265,-3.6221,-3.6256,-3.6278,-3.6282,-3.629,-3.625,-3.6316,-3.6434,-3.6447,-3.6298,-3.6297,-3.6295,0,-3.5596,-3.5707,-3.5792,-3.5823,-3.59,-3.5939,-3.5973,-3.6028,-3.607,-3.6129,-3.6156,-3.6223,-3.6259,-3.6311,-3.6339,-3.6311,-3.6439,-3.6407,-3.6455,-3.6455,-3.6481,-3.6479,-3.6605,-3.6505,-3.6505,-3.6505,-3.6504,0,-3.5697,-3.5769,-3.5818,-3.587,-3.595,-3.5979,-3.6058,-3.6091,-3.614,-3.6199,-3.6209,-3.6263,-3.6298,-3.6357,-3.638,-3.6461,-3.6477,-3.6493,-3.6498,-3.6492,-3.6489,-3.6514,-3.6508,-3.6508,-3.6507,-3.6507,-3.6506,0,-3.5773,-3.5809,-3.5902,-3.5968,-3.5986,-3.6042,-3.6098,-3.6149,-3.6179,-3.6252,-3.6271,-3.6317,-3.6387,-3.6421,-3.6508,-3.6523,-3.6614,-3.6616,-3.6595,-3.6597,-3.6643,-3.6638,-3.6789,-3.681,-3.6697,-3.6698,-3.6699,0,-3.5834,-3.589,-3.5962,-3.6002,-3.6037,-3.6102,-3.6144,-3.6175,-3.6219,-3.6289,-3.6331,-3.6402,-3.646,-3.6571,-3.6612,-3.6678,-3.6681,-3.6729,-3.6691,-3.6682,-3.668,-3.6676,-3.6682,-3.6736,-3.6737,-3.6738,-3.6738,0,-3.5939,-3.5954,-3.6016,-3.6084,-3.6135,-3.619,-3.6244,-3.6276,-3.6315,-3.6364,-3.6436,-3.6481,-3.657,-3.664,-3.6709,-3.6743,-3.6747,-3.6751,-3.6765,-3.6758,-3.6744,-3.6752,-3.6613,-3.6747,-3.6746,-3.6745,-3.6745,-3.6744,-3.6009,-3.6058,-3.6117,-3.6185,-3.6229,-3.628,-3.633,-3.6367,-3.6428,-3.6503,-3.6517,-3.6594,-3.665,-3.6744,-3.6781,-3.6841,-3.6829,-3.6851,-3.6856,-3.686,-3.6862,-3.6735,-3.6853,-3.6853,-3.6853,-3.6853,-3.6853,0,-3.6113,-3.6152,-3.6214,-3.629,-3.6343,-3.6344,-3.6404,-3.6448,-3.6516,-3.6569,-3.6626,-3.6709,-3.6777,-3.6823,-3.6892,-3.6931,-3.6935,-3.6948,-3.6945,-3.6953,-3.6869,-3.6849,-3.6944,-3.6944,-3.6944,-3.6944,-3.6944,-3.6944,-3.6174,-3.6257,-3.628,-3.6385,-3.6423,-3.6499,-3.6533,-3.6579,-3.6621,-3.6714,-3.677,-3.6801,-3.6851,-3.6924,-3.6986,-3.6998,-3.7023,-3.7036,-3.7048,-3.6968,-3.6958,-3.6949,-3.6931,-3.7041,-3.7042,-3.7126,-3.7127,-3.7128]}]]